• In Hungary
  • List of Countries
  • For 7 days
  • Water Temperature
  • Satellite Maps
  • Weather Map
  • News
  • Weather Widgets
  • user-avatar
    Login

    Hourly Weather Davletkulovo 1-e

    Today, 16 July, Monday

    Time Temperature Precipitation Wind Pressure Humidity
    00:00 +19°C° 0 mm 4 mps 733 mmHg 89%
    01:00 +19°C° 0 mm 4 mps 733 mmHg 89%
    02:00 +19°C° 0 mm 4 mps 733 mmHg 90%
    03:00 +18°C° 0 mm 4 mps 733 mmHg 91%
    04:00 +18°C° 0 mm 4 mps 733 mmHg 91%
    05:00 +19°C° 0 mm 4 mps 733 mmHg 89%
    06:00 +19°C° 0 mm 4 mps 733 mmHg 86%
    07:00 +20°C° 0 mm 4 mps 734 mmHg 83%
    08:00 +22°C° 0 mm 5 mps 734 mmHg 77%
    09:00 +23°C° 0 mm 5 mps 734 mmHg 71%
    10:00 +25°C° 0 mm 5 mps 734 mmHg 65%
    11:00 +26°C° 0 mm 5 mps 734 mmHg 63%
    12:00 +27°C° 0 mm 5 mps 734 mmHg 61%
    13:00 +27°C° 0 mm 5 mps 734 mmHg 59%
    14:00 +27°C° 0 mm 5 mps 734 mmHg 60%
    15:00 +27°C° 0 mm 5 mps 733 mmHg 60%
    16:00 +27°C° 0 mm 5 mps 733 mmHg 61%
    17:00 +27°C° 0 mm 4 mps 733 mmHg 66%
    18:00 +26°C° 0 mm 4 mps 733 mmHg 71%
    19:00 +25°C° 0 mm 4 mps 733 mmHg 76%
    20:00 +23°C° 0 mm 4 mps 733 mmHg 77%
    21:00 +21°C° 0 mm 4 mps 733 mmHg 78%
    22:00 +20°C° 0 mm 5 mps 733 mmHg 79%
    23:00 +20°C° 0 mm 5 mps 733 mmHg 77%

    Tomorrow, 17 July, Tuesday

    Time Temperature Precipitation Wind Pressure Humidity
    00:00 +20°C° 0 mm 5 mps 733 mmHg 76%
    01:00 +20°C° 0 mm 5 mps 733 mmHg 74%
    02:00 +20°C° 0 mm 5 mps 733 mmHg 72%
    03:00 +20°C° 0 mm 5 mps 733 mmHg 69%
    04:00 +20°C° 0 mm 5 mps 733 mmHg 67%
    05:00 +20°C° 0 mm 5 mps 733 mmHg 70%
    06:00 +20°C° 0 mm 5 mps 733 mmHg 72%
    07:00 +20°C° 0 mm 5 mps 733 mmHg 75%
    08:00 +21°C° 0 mm 6 mps 733 mmHg 75%
    09:00 +22°C° 0 mm 6 mps 733 mmHg 74%
    10:00 +22°C° 0 mm 6 mps 733 mmHg 74%
    11:00 +24°C° 0 mm 6 mps 733 mmHg 71%
    12:00 +26°C° 0 mm 6 mps 733 mmHg 68%
    13:00 +27°C° 0 mm 7 mps 733 mmHg 65%
    14:00 +28°C° 0 mm 6 mps 732 mmHg 64%
    15:00 +29°C° 0 mm 6 mps 732 mmHg 63%
    16:00 +29°C° 0 mm 5 mps 732 mmHg 62%
    17:00 +28°C° 0.1 mm 5 mps 732 mmHg 65%
    18:00 +27°C° 0.1 mm 5 mps 732 mmHg 68%
    19:00 +26°C° 0.1 mm 5 mps 732 mmHg 71%
    20:00 +25°C° 0.5 mm 5 mps 732 mmHg 74%
    21:00 +23°C° 0.5 mm 5 mps 732 mmHg 76%
    22:00 +22°C° 0.5 mm 5 mps 732 mmHg 79%
    23:00 +21°C° 2.8 mm 5 mps 731 mmHg 82%

    Day after tomorrow, 18 July, Wednesday

    Time Temperature Precipitation Wind Pressure Humidity
    00:00 +20°C° 2.8 mm 5 mps 731 mmHg 85%
    01:00 +20°C° 2.8 mm 5 mps 731 mmHg 88%
    02:00 +20°C° 0.2 mm 5 mps 731 mmHg 84%
    03:00 +20°C° 0.2 mm 6 mps 731 mmHg 79%
    04:00 +20°C° 0.2 mm 6 mps 731 mmHg 75%
    05:00 +20°C° 0 mm 5 mps 731 mmHg 74%
    06:00 +21°C° 0 mm 5 mps 731 mmHg 73%
    07:00 +21°C° 0 mm 5 mps 732 mmHg 71%
    08:00 +23°C° 0.1 mm 5 mps 732 mmHg 70%
    09:00 +25°C° 0.1 mm 5 mps 732 mmHg 69%
    10:00 +27°C° 0.1 mm 5 mps 732 mmHg 68%
    11:00 +28°C° 0.3 mm 4 mps 732 mmHg 66%
    12:00 +29°C° 0.3 mm 4 mps 732 mmHg 65%
    13:00 +30°C° 0.3 mm 4 mps 732 mmHg 64%
    14:00 +29°C° 1.1 mm 3 mps 732 mmHg 68%
    15:00 +28°C° 1.1 mm 3 mps 732 mmHg 72%
    16:00 +28°C° 1.1 mm 3 mps 732 mmHg 75%
    17:00 +26°C° 1.7 mm 3 mps 732 mmHg 80%
    18:00 +25°C° 1.7 mm 3 mps 733 mmHg 85%
    19:00 +22°C° 1.7 mm 3 mps 733 mmHg 89%
    20:00 +21°C° 0.8 mm 2 mps 733 mmHg 90%
    21:00 +21°C° 0.8 mm 2 mps 733 mmHg 90%
    22:00 +20°C° 0.8 mm 2 mps 733 mmHg 91%
    23:00 +20°C° 0.5 mm 2 mps 733 mmHg 91%

    19 July, Thursday

    Time Temperature Precipitation Wind Pressure Humidity
    00:00 +20°C° 0.5 mm 2 mps 733 mmHg 91%
    01:00 +19°C° 0.5 mm 2 mps 734 mmHg 91%
    02:00 +19°C° 0.1 mm 2 mps 734 mmHg 90%
    03:00 +19°C° 0.1 mm 2 mps 734 mmHg 89%
    04:00 +18°C° 0.1 mm 2 mps 734 mmHg 87%
    05:00 +19°C° 0 mm 2 mps 734 mmHg 85%
    06:00 +20°C° 0 mm 2 mps 734 mmHg 83%
    07:00 +21°C° 0 mm 2 mps 734 mmHg 81%
    08:00 +24°C° 0 mm 2 mps 734 mmHg 75%
    09:00 +26°C° 0 mm 2 mps 734 mmHg 69%
    10:00 +27°C° 0 mm 2 mps 734 mmHg 63%
    11:00 +28°C° 0 mm 2 mps 734 mmHg 59%
    12:00 +29°C° 0 mm 2 mps 734 mmHg 56%
    13:00 +30°C° 0 mm 2 mps 734 mmHg 53%
    14:00 +30°C° 0 mm 2 mps 734 mmHg 54%
    15:00 +30°C° 0 mm 2 mps 734 mmHg 55%
    16:00 +30°C° 0 mm 2 mps 734 mmHg 56%
    17:00 +29°C° 0 mm 2 mps 734 mmHg 62%
    18:00 +28°C° 0 mm 2 mps 734 mmHg 69%
    19:00 +27°C° 0 mm 2 mps 734 mmHg 76%
    20:00 +25°C° 0 mm 2 mps 734 mmHg 79%
    21:00 +24°C° 0 mm 2 mps 734 mmHg 82%
    22:00 +21°C° 0 mm 2 mps 734 mmHg 86%
    23:00 +20°C° 0 mm 2 mps 734 mmHg 86%

    20 July, Friday

    Time Temperature Precipitation Wind Pressure Humidity
    00:00 +20°C° 0 mm 2 mps 733 mmHg 87%
    01:00 +19°C° 0 mm 2 mps 733 mmHg 87%
    02:00 +19°C° 0 mm 2 mps 733 mmHg 87%
    03:00 +18°C° 0 mm 2 mps 733 mmHg 87%
    04:00 +18°C° 0 mm 2 mps 733 mmHg 87%
    05:00 +19°C° 0 mm 3 mps 733 mmHg 84%
    06:00 +20°C° 0 mm 3 mps 733 mmHg 81%
    07:00 +21°C° 0 mm 3 mps 733 mmHg 78%
    08:00 +24°C° 0 mm 3 mps 733 mmHg 72%
    09:00 +26°C° 0 mm 4 mps 733 mmHg 67%
    10:00 +27°C° 0 mm 4 mps 733 mmHg 61%
    11:00 +28°C° 0 mm 4 mps 733 mmHg 58%
    12:00 +29°C° 0 mm 3 mps 733 mmHg 55%
    13:00 +30°C° 0 mm 3 mps 732 mmHg 53%
    14:00 +31°C° 0 mm 3 mps 732 mmHg 54%
    15:00 +31°C° 0 mm 3 mps 732 mmHg 55%
    16:00 +31°C° 0 mm 3 mps 732 mmHg 56%
    17:00 +30°C° 0 mm 3 mps 732 mmHg 62%
    18:00 +28°C° 0 mm 3 mps 732 mmHg 68%
    19:00 +27°C° 0 mm 3 mps 732 mmHg 74%
    20:00 +26°C° 0 mm 3 mps 731 mmHg 77%
    21:00 +24°C° 0 mm 3 mps 731 mmHg 80%
    22:00 +22°C° 0 mm 4 mps 731 mmHg 83%
    23:00 +21°C° 0 mm 4 mps 731 mmHg 83%

    21 July, Saturday

    Time Temperature Precipitation Wind Pressure Humidity
    00:00 +21°C° 0 mm 4 mps 731 mmHg 83%
    01:00 +21°C° 0 mm 4 mps 731 mmHg 84%
    02:00 +20°C° 0 mm 4 mps 731 mmHg 83%
    03:00 +20°C° 0 mm 5 mps 731 mmHg 82%
    04:00 +20°C° 0 mm 5 mps 731 mmHg 82%
    05:00 +21°C° 0 mm 5 mps 731 mmHg 80%
    06:00 +21°C° 0 mm 6 mps 731 mmHg 79%
    07:00 +22°C° 0 mm 6 mps 731 mmHg 77%
    08:00 +23°C° 0 mm 6 mps 731 mmHg 73%
    09:00 +26°C° 0 mm 7 mps 731 mmHg 69%
    10:00 +27°C° 0 mm 7 mps 732 mmHg 64%
    11:00 +28°C° 0 mm 7 mps 732 mmHg 62%
    12:00 +29°C° 0 mm 7 mps 732 mmHg 60%
    13:00 +30°C° 0 mm 7 mps 732 mmHg 58%
    14:00 +30°C° 0.1 mm 6 mps 732 mmHg 59%
    15:00 +30°C° 0.1 mm 6 mps 732 mmHg 59%
    16:00 +30°C° 0.1 mm 6 mps 732 mmHg 60%
    17:00 +28°C° 0.1 mm 5 mps 732 mmHg 65%
    18:00 +27°C° 0.1 mm 5 mps 732 mmHg 69%
    19:00 +26°C° 0.1 mm 5 mps 732 mmHg 74%
    20:00 +25°C° 0 mm 5 mps 732 mmHg 74%
    21:00 +23°C° 0 mm 6 mps 732 mmHg 74%
    22:00 +22°C° 0 mm 7 mps 732 mmHg 74%
    23:00 +21°C° 0 mm 7 mps 733 mmHg 72%
    Show more